Time,TemperatureF,DewpointF,PressureIn,WindDirection,WindDirectionDegrees,WindSpeedMPH,WindSpeedGustMPH,Humidity,HourlyPrecipIn,Conditions,Clouds,dailyrainin,SoftwareType,DateUTC
2013-02-13 00:01:00,70.0,69.0,29.98,WSW,238,6.0,9.0,96,99.99,,,-99.99,,2013-02-13 05:01:00,
2013-02-13 00:11:00,70.0,68.0,29.98,SW,235,6.0,9.0,95,99.99,,,-99.99,,2013-02-13 05:11:00,
2013-02-13 00:22:00,70.0,68.0,29.98,SW,235,6.0,9.0,95,99.99,,,-99.99,,2013-02-13 05:22:00,
2013-02-13 00:31:00,70.0,68.0,29.98,SW,231,5.0,7.0,95,99.99,,,-99.99,,2013-02-13 05:31:00,
2013-02-13 00:42:00,70.0,68.0,29.98,SW,231,5.0,7.0,95,99.99,,,-99.99,,2013-02-13 05:42:00,
2013-02-13 00:52:00,70.0,69.0,29.97,SSW,210,6.0,10.0,96,99.99,,,-99.99,,2013-02-13 05:52:00,
2013-02-13 01:02:00,70.0,69.0,29.96,SSW,210,6.0,10.0,96,99.99,,,-99.99,,2013-02-13 06:02:00,
2013-02-13 01:11:00,70.0,69.0,29.96,SW,228,6.0,9.0,96,99.99,,,-99.99,,2013-02-13 06:11:00,
2013-02-13 01:21:00,70.0,69.0,29.96,SW,228,6.0,9.0,96,99.99,,,-99.99,,2013-02-13 06:21:00,
2013-02-13 01:32:00,69.0,68.0,29.96,SW,229,5.0,8.0,97,99.99,,,-99.99,,2013-02-13 06:32:00,
2013-02-13 01:42:00,69.0,68.0,29.97,SSW,212,2.0,5.0,97,99.99,,,-99.99,,2013-02-13 06:42:00,
2013-02-13 01:52:00,69.0,68.0,29.97,SSW,212,2.0,5.0,97,99.99,,,-99.99,,2013-02-13 06:52:00,
2013-02-13 02:02:00,69.0,68.0,29.97,SW,225,4.0,7.0,98,99.99,,,-99.99,,2013-02-13 07:02:00,
2013-02-13 02:11:00,69.0,69.0,29.96,SSW,205,5.0,8.0,99,99.99,,,-99.99,,2013-02-13 07:11:00,
2013-02-13 02:22:00,69.0,69.0,29.96,SSW,205,5.0,8.0,99,99.99,,,-99.99,,2013-02-13 07:22:00,
2013-02-13 02:32:00,69.0,69.0,29.96,SW,235,5.0,7.0,99,99.99,,,-99.99,,2013-02-13 07:32:00,
2013-02-13 02:42:00,69.0,69.0,29.96,SW,219,5.0,7.0,99,99.99,,,-99.99,,2013-02-13 07:42:00,
2013-02-13 02:52:00,69.0,69.0,29.96,SW,219,5.0,7.0,99,99.99,,,-99.99,,2013-02-13 07:52:00,
2013-02-13 03:01:00,69.0,69.0,29.95,SW,224,6.0,10.0,100,99.99,,,-99.99,,2013-02-13 08:01:00,
2013-02-13 03:11:00,69.0,69.0,29.96,SW,219,5.0,8.0,100,99.99,,,-99.99,,2013-02-13 08:11:00,
2013-02-13 03:21:00,69.0,69.0,29.96,SW,219,5.0,8.0,100,99.99,,,-99.99,,2013-02-13 08:21:00,
2013-02-13 03:32:00,69.0,69.0,29.95,SW,219,4.0,7.0,100,99.99,,,-99.99,,2013-02-13 08:32:00,
2013-02-13 03:43:00,69.0,69.0,29.95,SW,219,4.0,7.0,100,99.99,,,-99.99,,2013-02-13 08:43:00,
2013-02-13 03:52:00,68.0,68.0,29.95,SW,219,5.0,8.0,100,99.99,,,-99.99,,2013-02-13 08:52:00,
2013-02-13 04:01:00,68.0,68.0,29.95,SSW,204,6.0,8.0,100,99.99,,,-99.99,,2013-02-13 09:01:00,
2013-02-13 04:11:00,68.0,68.0,29.94,SW,225,6.0,11.0,100,99.99,,,-99.99,,2013-02-13 09:11:00,
2013-02-13 04:21:00,68.0,68.0,29.94,SW,225,6.0,11.0,100,99.99,,,-99.99,,2013-02-13 09:21:00,
2013-02-13 04:31:00,68.0,68.0,29.94,SW,231,5.0,8.0,100,99.99,,,-99.99,,2013-02-13 09:31:00,
2013-02-13 04:42:00,68.0,68.0,29.94,SW,217,1.0,4.0,100,99.99,,,-99.99,,2013-02-13 09:42:00,
2013-02-13 04:51:00,68.0,68.0,29.94,SW,217,1.0,4.0,100,99.99,,,-99.99,,2013-02-13 09:51:00,
2013-02-13 05:01:00,68.0,68.0,29.94,SW,224,4.0,6.0,100,99.99,,,-99.99,,2013-02-13 10:01:00,
2013-02-13 05:11:00,68.0,68.0,29.94,SW,231,4.0,8.0,100,99.99,,,-99.99,,2013-02-13 10:11:00,
2013-02-13 05:21:00,68.0,68.0,29.94,SW,231,4.0,8.0,100,99.99,,,-99.99,,2013-02-13 10:21:00,
2013-02-13 05:32:00,68.0,68.0,29.95,SW,229,4.0,7.0,100,99.99,,,-99.99,,2013-02-13 10:32:00,
2013-02-13 05:42:00,68.0,68.0,29.94,WSW,249,5.0,11.0,100,99.99,,,-99.99,,2013-02-13 10:42:00,
2013-02-13 05:52:00,68.0,68.0,29.94,WSW,249,5.0,11.0,100,99.99,,,-99.99,,2013-02-13 10:52:00,
2013-02-13 06:01:00,68.0,68.0,29.95,SSW,210,7.0,10.0,100,99.99,,,-99.99,,2013-02-13 11:01:00,
2013-02-13 06:11:00,68.0,68.0,29.95,SW,222,7.0,10.0,100,99.99,,,-99.99,,2013-02-13 11:11:00,
2013-02-13 06:22:00,68.0,68.0,29.95,SW,222,7.0,10.0,100,99.99,,,-99.99,,2013-02-13 11:22:00,
2013-02-13 06:32:00,69.0,69.0,29.95,South,187,7.0,10.0,100,99.99,,,-99.99,,2013-02-13 11:32:00,
2013-02-13 06:42:00,69.0,69.0,29.94,SW,219,8.0,14.0,100,99.99,,,-99.99,,2013-02-13 11:42:00,
2013-02-13 06:52:00,69.0,69.0,29.94,SW,219,8.0,14.0,100,99.99,,,-99.99,,2013-02-13 11:52:00,
2013-02-13 07:02:00,69.0,69.0,29.95,SSW,205,7.0,11.0,100,99.99,,,-99.99,,2013-02-13 12:02:00,
2013-02-13 07:11:00,69.0,69.0,29.95,SW,221,7.0,12.0,100,99.99,,,-99.99,,2013-02-13 12:11:00,
2013-02-13 07:22:00,69.0,69.0,29.95,SW,221,7.0,12.0,100,99.99,,,-99.99,,2013-02-13 12:22:00,
2013-02-13 07:32:00,69.0,69.0,29.96,SSW,208,6.0,9.0,100,99.99,,,-99.99,,2013-02-13 12:32:00,
2013-02-13 07:42:00,69.0,69.0,29.96,SW,224,6.0,10.0,100,99.99,,,-99.99,,2013-02-13 12:42:00,
2013-02-13 07:52:00,69.0,69.0,29.96,SW,224,6.0,10.0,100,99.99,,,-99.99,,2013-02-13 12:52:00,
2013-02-13 08:02:00,69.0,69.0,29.96,SW,226,7.0,10.0,100,99.99,,,-99.99,,2013-02-13 13:02:00,
2013-02-13 08:11:00,70.0,70.0,29.97,SW,228,7.0,13.0,100,99.99,,,-99.99,,2013-02-13 13:11:00,
2013-02-13 08:21:00,70.0,70.0,29.97,SW,228,7.0,13.0,100,99.99,,,-99.99,,2013-02-13 13:21:00,
2013-02-13 08:32:00,70.0,70.0,29.97,SSW,204,6.0,11.0,100,99.99,,,-99.99,,2013-02-13 13:32:00,
2013-02-13 08:42:00,71.0,70.0,29.97,SSW,203,8.0,12.0,98,99.99,,,-99.99,,2013-02-13 13:42:00,
2013-02-13 08:52:00,71.0,70.0,29.97,SSW,203,8.0,12.0,98,99.99,,,-99.99,,2013-02-13 13:52:00,
2013-02-13 09:01:00,71.0,70.0,29.98,SW,235,7.0,10.0,98,99.99,,,-99.99,,2013-02-13 14:01:00,
2013-02-13 09:11:00,71.0,70.0,29.98,SW,235,7.0,10.0,98,99.99,,,-99.99,,2013-02-13 14:11:00,
2013-02-13 09:21:00,71.0,70.0,29.98,SW,235,7.0,10.0,98,99.99,,,-99.99,,2013-02-13 14:21:00,
2013-02-13 09:32:00,73.0,70.0,29.97,SW,228,7.0,10.0,91,99.99,,,-99.99,,2013-02-13 14:32:00,
2013-02-13 09:42:00,76.0,69.0,29.98,SW,235,7.0,11.0,78,99.99,,,-99.99,,2013-02-13 14:42:00,
2013-02-13 09:52:00,76.0,69.0,29.98,SW,235,7.0,11.0,78,99.99,,,-99.99,,2013-02-13 14:52:00,
2013-02-13 10:02:00,78.0,68.0,29.98,SW,218,8.0,15.0,72,99.99,,,-99.99,,2013-02-13 15:02:00,
2013-02-13 10:11:00,79.0,68.0,29.98,SSW,197,8.0,14.0,70,99.99,,,-99.99,,2013-02-13 15:11:00,
2013-02-13 10:21:00,79.0,68.0,29.98,SSW,197,8.0,14.0,70,99.99,,,-99.99,,2013-02-13 15:21:00,
2013-02-13 10:32:00,80.0,68.0,29.97,WSW,257,9.0,18.0,67,99.99,,,-99.99,,2013-02-13 15:32:00,
2013-02-13 10:52:00,81.0,68.0,29.97,SW,228,10.0,17.0,65,99.99,,,-99.99,,2013-02-13 15:52:00,
2013-02-13 11:01:00,82.0,68.0,29.97,West,266,10.0,15.0,62,99.99,,,-99.99,,2013-02-13 16:01:00,
2013-02-13 11:11:00,83.0,68.0,29.97,WSW,249,9.0,14.0,61,99.99,,,-99.99,,2013-02-13 16:11:00,
2013-02-13 11:21:00,83.0,68.0,29.97,WSW,249,9.0,14.0,61,99.99,,,-99.99,,2013-02-13 16:21:00,
2013-02-13 11:32:00,83.0,68.0,29.96,SSW,207,8.0,13.0,60,99.99,,,-99.99,,2013-02-13 16:32:00,
2013-02-13 11:42:00,83.0,66.0,29.95,West,262,11.0,20.0,57,99.99,,,-99.99,,2013-02-13 16:42:00,
2013-02-13 11:52:00,83.0,66.0,29.95,West,262,11.0,20.0,57,99.99,,,-99.99,,2013-02-13 16:52:00,
2013-02-13 12:01:00,84.0,65.0,29.94,SW,222,13.0,23.0,53,99.99,,,-99.99,,2013-02-13 17:01:00,
2013-02-13 12:11:00,85.0,65.0,29.93,SW,224,12.0,21.0,51,99.99,,,-99.99,,2013-02-13 17:11:00,
2013-02-13 12:21:00,85.0,65.0,29.93,SW,224,12.0,21.0,51,99.99,,,-99.99,,2013-02-13 17:21:00,
2013-02-13 12:32:00,86.0,64.0,29.93,WSW,242,11.0,20.0,48,99.99,,,-99.99,,2013-02-13 17:32:00,
2013-02-13 12:42:00,86.0,64.0,29.93,WSW,242,11.0,20.0,48,99.99,,,-99.99,,2013-02-13 17:42:00,
2013-02-13 12:52:00,87.0,62.0,29.92,West,260,9.0,21.0,44,99.99,,,-99.99,,2013-02-13 17:52:00,
2013-02-13 13:02:00,88.0,63.0,29.91,West,274,12.0,20.0,43,99.99,,,-99.99,,2013-02-13 18:02:00,
2013-02-13 13:11:00,88.0,61.0,29.90,WSW,239,13.0,23.0,41,99.99,,,-99.99,,2013-02-13 18:11:00,
2013-02-13 13:23:00,88.0,61.0,29.90,WSW,239,13.0,23.0,41,99.99,,,-99.99,,2013-02-13 18:23:00,
2013-02-13 13:32:00,88.0,62.0,29.90,SW,231,12.0,20.0,42,99.99,,,-99.99,,2013-02-13 18:32:00,
2013-02-13 13:42:00,88.0,62.0,29.90,SW,231,12.0,20.0,42,99.99,,,-99.99,,2013-02-13 18:42:00,
2013-02-13 13:52:00,89.0,62.0,29.88,WSW,242,14.0,24.0,41,99.99,,,-99.99,,2013-02-13 18:52:00,
2013-02-13 14:01:00,89.0,61.0,29.88,WSW,243,12.0,19.0,39,99.99,,,-99.99,,2013-02-13 19:01:00,
2013-02-13 14:11:00,89.0,61.0,29.86,West,263,11.0,19.0,40,99.99,,,-99.99,,2013-02-13 19:11:00,
2013-02-13 14:21:00,89.0,61.0,29.86,West,263,11.0,19.0,40,99.99,,,-99.99,,2013-02-13 19:21:00,
2013-02-13 14:32:00,89.0,62.0,29.86,WSW,252,12.0,22.0,41,99.99,,,-99.99,,2013-02-13 19:32:00,
2013-02-13 14:42:00,89.0,62.0,29.86,WNW,291,13.0,22.0,41,99.99,,,-99.99,,2013-02-13 19:42:00,
2013-02-13 14:52:00,89.0,62.0,29.86,WNW,291,13.0,22.0,41,99.99,,,-99.99,,2013-02-13 19:52:00,
2013-02-13 15:02:00,88.0,63.0,29.85,West,262,11.0,18.0,43,99.99,,,-99.99,,2013-02-13 20:02:00,
2013-02-13 15:11:00,88.0,62.0,29.86,West,260,12.0,21.0,42,99.99,,,-99.99,,2013-02-13 20:11:00,
2013-02-13 15:21:00,88.0,62.0,29.86,West,260,12.0,21.0,42,99.99,,,-99.99,,2013-02-13 20:21:00,
2013-02-13 15:31:00,86.0,63.0,29.86,West,266,10.0,20.0,47,99.99,,,-99.99,,2013-02-13 20:31:00,
2013-02-13 15:42:00,86.0,63.0,29.85,SW,236,12.0,19.0,47,99.99,,,-99.99,,2013-02-13 20:42:00,
2013-02-13 15:52:00,86.0,63.0,29.85,SW,236,12.0,19.0,47,99.99,,,-99.99,,2013-02-13 20:52:00,
2013-02-13 16:01:00,86.0,64.0,29.86,West,264,11.0,19.0,48,99.99,,,-99.99,,2013-02-13 21:01:00,
2013-02-13 16:11:00,85.0,65.0,29.89,West,260,9.0,16.0,51,99.99,,,-99.99,,2013-02-13 21:11:00,
2013-02-13 16:21:00,85.0,65.0,29.89,West,260,9.0,16.0,51,99.99,,,-99.99,,2013-02-13 21:21:00,
2013-02-13 16:31:00,84.0,64.0,29.85,SW,235,10.0,20.0,52,99.99,,,-99.99,,2013-02-13 21:31:00,
2013-02-13 16:42:00,84.0,64.0,29.86,SW,231,11.0,19.0,52,99.99,,,-99.99,,2013-02-13 21:42:00,
2013-02-13 16:52:00,84.0,64.0,29.86,SW,231,11.0,19.0,52,99.99,,,-99.99,,2013-02-13 21:52:00,
2013-02-13 17:02:00,85.0,65.0,29.86,SW,226,10.0,18.0,52,99.99,,,-99.99,,2013-02-13 22:02:00,
2013-02-13 17:11:00,84.0,64.0,29.86,WSW,252,11.0,24.0,52,99.99,,,-99.99,,2013-02-13 22:11:00,
2013-02-13 17:21:00,84.0,64.0,29.86,WSW,252,11.0,24.0,52,99.99,,,-99.99,,2013-02-13 22:21:00,
2013-02-13 17:31:00,83.0,65.0,29.87,SW,235,10.0,17.0,54,99.99,,,-99.99,,2013-02-13 22:31:00,
2013-02-13 17:42:00,83.0,65.0,29.87,SW,235,10.0,17.0,54,99.99,,,-99.99,,2013-02-13 22:42:00,
2013-02-13 17:52:00,81.0,65.0,29.87,SW,228,12.0,19.0,58,99.99,,,-99.99,,2013-02-13 22:52:00,
2013-02-13 18:01:00,81.0,66.0,29.87,SW,229,10.0,15.0,60,99.99,,,-99.99,,2013-02-13 23:01:00,
2013-02-13 18:11:00,80.0,66.0,29.87,WSW,242,8.0,14.0,62,99.99,,,-99.99,,2013-02-13 23:11:00,
2013-02-13 18:21:00,80.0,66.0,29.87,WSW,242,8.0,14.0,62,99.99,,,-99.99,,2013-02-13 23:21:00,
2013-02-13 18:32:00,80.0,66.0,29.88,WSW,246,7.0,12.0,63,99.99,,,-99.99,,2013-02-13 23:32:00,
2013-02-13 18:42:00,80.0,66.0,29.88,WSW,246,7.0,12.0,63,99.99,,,-99.99,,2013-02-13 23:42:00,
2013-02-13 18:52:00,79.0,66.0,29.88,WSW,242,6.0,10.0,65,99.99,,,-99.99,,2013-02-13 23:52:00,
2013-02-13 19:02:00,78.0,66.0,29.88,SW,232,7.0,12.0,66,99.99,,,-99.99,,2013-02-14 00:02:00,
2013-02-13 19:11:00,78.0,66.0,29.88,SW,232,7.0,12.0,66,99.99,,,-99.99,,2013-02-14 00:11:00,
2013-02-13 19:21:00,78.0,67.0,29.88,West,280,7.0,12.0,68,99.99,,,-99.99,,2013-02-14 00:21:00,
2013-02-13 19:32:00,77.0,66.0,29.89,WSW,250,6.0,10.0,69,99.99,,,-99.99,,2013-02-14 00:32:00,
2013-02-13 19:42:00,77.0,66.0,29.89,WSW,250,6.0,10.0,69,99.99,,,-99.99,,2013-02-14 00:42:00,
2013-02-13 19:52:00,77.0,66.0,29.90,SW,236,4.0,6.0,70,99.99,,,-99.99,,2013-02-14 00:52:00,
2013-02-13 20:01:00,77.0,67.0,29.91,WSW,242,7.0,10.0,72,99.99,,,-99.99,,2013-02-14 01:01:00,
2013-02-13 20:11:00,76.0,67.0,29.91,WSW,249,7.0,11.0,74,99.99,,,-99.99,,2013-02-14 01:11:00,
2013-02-13 20:21:00,76.0,67.0,29.91,WSW,249,7.0,11.0,74,99.99,,,-99.99,,2013-02-14 01:21:00,
2013-02-13 20:32:00,76.0,67.0,29.91,SW,224,9.0,16.0,75,99.99,,,-99.99,,2013-02-14 01:32:00,
2013-02-13 20:41:00,76.0,67.0,29.91,SW,224,9.0,16.0,75,99.99,,,-99.99,,2013-02-14 01:41:00,
2013-02-13 20:52:00,75.0,67.0,29.92,WSW,253,8.0,16.0,77,99.99,,,-99.99,,2013-02-14 01:52:00,
2013-02-13 21:01:00,75.0,68.0,29.92,SW,232,5.0,8.0,78,99.99,,,-99.99,,2013-02-14 02:01:00,
2013-02-13 21:11:00,75.0,68.0,29.92,West,266,6.0,10.0,80,99.99,,,-99.99,,2013-02-14 02:11:00,
2013-02-13 21:21:00,75.0,68.0,29.92,West,266,6.0,10.0,80,99.99,,,-99.99,,2013-02-14 02:21:00,
2013-02-13 21:31:00,73.0,66.0,29.94,WNW,283,12.0,23.0,80,99.99,,,-99.99,,2013-02-14 02:31:00,
2013-02-13 21:41:00,73.0,66.0,29.94,WNW,283,12.0,23.0,80,99.99,,,-99.99,,2013-02-14 02:41:00,
2013-02-13 21:52:00,73.0,66.0,29.94,WNW,283,12.0,23.0,80,99.99,,,-99.99,,2013-02-14 02:52:00,
2013-02-13 22:02:00,66.0,63.0,29.97,NNW,347,7.0,12.0,90,99.99,,,-99.99,,2013-02-14 03:02:00,
2013-02-13 22:11:00,66.0,60.0,29.97,NNW,335,9.0,15.0,80,99.99,,,-99.99,,2013-02-14 03:11:00,
2013-02-13 22:22:00,66.0,60.0,29.97,NNW,335,9.0,15.0,80,99.99,,,-99.99,,2013-02-14 03:22:00,
2013-02-13 22:31:00,66.0,59.0,29.97,NNW,340,7.0,13.0,79,99.99,,,-99.99,,2013-02-14 03:31:00,
2013-02-13 22:42:00,65.0,58.0,29.98,NNW,340,6.0,10.0,78,99.99,,,-99.99,,2013-02-14 03:42:00,
2013-02-13 22:52:00,65.0,58.0,29.98,NNW,340,6.0,10.0,78,99.99,,,-99.99,,2013-02-14 03:52:00,
2013-02-13 23:01:00,65.0,58.0,29.98,NNW,332,6.0,9.0,78,99.99,,,-99.99,,2013-02-14 04:01:00,
2013-02-13 23:12:00,65.0,58.0,29.98,North,354,5.0,9.0,78,99.99,,,-99.99,,2013-02-14 04:12:00,
2013-02-13 23:21:00,65.0,58.0,29.98,North,354,5.0,9.0,78,99.99,,,-99.99,,2013-02-14 04:21:00,
2013-02-13 23:32:00,65.0,58.0,29.98,North,3,5.0,9.0,77,99.99,,,-99.99,,2013-02-14 04:32:00,
2013-02-13 23:41:00,65.0,58.0,29.98,North,3,5.0,9.0,77,99.99,,,-99.99,,2013-02-14 04:41:00,
2013-02-13 23:52:00,65.0,58.0,29.98,North,3,5.0,9.0,77,99.99,,,-99.99,,2013-02-14 04:52:00,